{"data":{"norad_id":41026,"intl_designator":"2015-064A","name":"YAOGAN-28","alt_names":[],"object_type":"PAYLOAD","status":"ACTIVE","operator":null,"country":"PRC","launch_date":"2015-11-08","launch_site_code":"TAISC","launch_vehicle":null,"mission":null,"orbit_class":"UNKNOWN","rcs_meters":4.8055,"size_class":null,"mass_kg":null,"dimensions":null,"purposes":["earth_obs"],"wikipedia_slug":null,"has_3d_model":false,"image_url":null,"decayed_at":null,"tle_current":{"epoch":"2026-05-25T04:40:09.247008Z","epoch_age_seconds":52235,"freshness":"FRESH","line1":"1 41026U 15064A   26145.19455147  .00006537  00000+0  24857-3 0  9992","line2":"2 41026  97.3041 283.9348 0009158 271.6429  88.3761 15.27075436587171","mean_motion":15.27075436,"eccentricity":0.0009158,"inclination_deg":97.3041,"raan_deg":283.9348,"arg_perigee_deg":271.6429,"mean_anomaly_deg":88.3761,"bstar":0.00024857,"rev_number":58717,"period_min":94.297895575605,"perigee_km":478.2754999171,"apogee_km":490.8452163983,"semimajor_km":6862.6973581577,"source":"CELESTRAK","updated_at":"2026-05-25T13:38:12.789801Z"}}}